Location: STAR School
(35.3054°N, 111.2976°W)
Time: 03:19:20
(UTC-07:00)

OTV 5 (USA 277) - Visible Passes

Search period start: 22 April 2019 00:00
Search period end: 02 May 2019 00:00
Orbit: 309 x 326 km, 54.5° (Epoch: 21 April)

Date Brightness Start Highest point End Pass type
(mag) Time Alt. Az. Time Alt. Az. Time Alt. Az.
22 Apr ? 04:55:26 10° NW 04:58:02 53° SW 05:00:36 10° SSE visible
22 Apr ? 19:39:46 10° S 19:41:37 17° SE 19:43:28 10° E visible
22 Apr ? 21:13:38 10° W 21:14:38 16° WNW 21:14:38 16° WNW visible
23 Apr ? 03:38:56 21° ENE 03:38:56 21° ENE 03:40:35 10° E visible
23 Apr ? 05:10:57 10° W 05:12:35 15° SW 05:14:13 10° SSW visible
23 Apr ? 19:53:31 10° SSW 19:56:12 59° SE 19:58:53 10° NE visible
24 Apr ? 20:08:22 10° WSW 20:10:55 35° NW 20:13:28 10° NNE visible
25 Apr ? 20:24:15 10° WNW 20:25:49 14° NW 20:27:21 10° N visible
